Other Public Products
Issued by NWS Charleston, SC

Current Version | Previous Version | Graphics & Text | Print | Product List | Glossary On
Versions: 1 2 3 4 5 6 7 8 9 10 11 12 13 14 15 16 17 18 19 20 21 22 23 24 25 26 27 28 29 30 31 32 33 34 35 36 37 38 39 40 41 42 43 44 45 46 47 48 49 50
000
FPUS82 KCHS 241227
OPUCHS

TEST...KCHS/KSAV Gateway Observations...TEST
National Weather Service Charleston SC
700 AM EST FRI NOV 24 2017

NOTE: "fair" indicates few or no clouds below 12,000 feet with no
significant weather and/or obstructions to visibility.

SCZ050-WAZ558-NCZ071-TXZ119-213-PAZ071-DCZ001-FLZ074-172-MI076-
NYZ176-178-MAZ016-IL014-TNZ027-NJZ106-GAZ044-MD014-241300-

...Gateway Observations for Charleston International...

CITY           SKY/WX    TMP DP  RH WIND       PRES   REMARKS
Chas Airport   PTCLDY    42  38  85 N12       29.98S
6HR MIN TEMP:  42; 6HR MAX TEMP:  45;

Seattle        CLOUDY    47  43  86 S10       30.05R
6HR MIN TEMP:  46; 6HR MAX TEMP:  49; 6HR PCP: TRACE;

Charlotte      CLEAR     27  27 100 N3        30.07R
6HR MIN TEMP:  27; 6HR MAX TEMP:  34;

Dallas DFW     PTCLDY    47  33  58 S6        29.93F
6HR MIN TEMP:  45; 6HR MAX TEMP:  51;

Dallas Love    PTCLDY    44  33  65 SE5       29.96S
6HR MIN TEMP:  44; 6HR MAX TEMP:  53;

Philladelphia  CLEAR     32  27  81 W3        30.08S
6HR MIN TEMP:  30; 6HR MAX TEMP:  35;

Wash National  PTCLDY    33  29  85 SW5       30.09S WCI  29
6HR MIN TEMP:  32; 6HR MAX TEMP:  36;

Baltimore      CLEAR     26  24  92 CALM      30.07S
6HR MIN TEMP:  25; 6HR MAX TEMP:  29;

Miami          MOCLDY    72  70  93 SW3       29.86R
6HR MIN TEMP:  71; 6HR MAX TEMP:  74;

Detroit        PTCLDY    30  25  81 S9        29.89R WCI  22
6HR MIN TEMP:  28; 6HR MAX TEMP:  33;

Newark         PTCLDY    32  22  66 CALM      30.06R
6HR MIN TEMP:  27; 6HR MAX TEMP:  33;

Laguardia      PTCLDY    38  22  52 NW3       30.05R
6HR MIN TEMP:  38; 6HR MAX TEMP:  40;

J F K          PTCLDY    34  26  72 W6        30.07R WCI  29
6HR MIN TEMP:  33; 6HR MAX TEMP:  37;

Boston Logan   CLEAR     33  24  69 SW10      30.01R WCI  25
6HR MIN TEMP:  31; 6HR MAX TEMP:  35;

Ft. Lauderdale MOCLDY    70  70 100 W5        29.85R
6HR MIN TEMP:  70; 6HR MAX TEMP:  73;

Chicago O`Hare PTCLDY    35  28  75 S6        29.76F WCI  30
6HR MIN TEMP:  32; 6HR MAX TEMP:  37;

Chicago Midway PTCLDY    37  28  70 S10       29.78F WCI  30
6HR MIN TEMP:  34; 6HR MAX TEMP:  37;

Houston Bush   CLEAR     42  40  92 CALM      30.03S
6HR MIN TEMP:  41; 6HR MAX TEMP:  45;

Houston Hobby  PTCLDY    43  39  86 CALM      30.03R
6HR MIN TEMP:  42; 6HR MAX TEMP:  46;

Nashville      CLOUDY    30  25  81 CALM      30.01S
6HR MIN TEMP:  29; 6HR MAX TEMP:  34;

Atlanta        PTCLDY    42  37  82 E6        30.03S
6HR MIN TEMP:  41; 6HR MAX TEMP:  47;


$$

GAZ044-118-TXZ119-213-NCZ071-DCZ001-MDZ014-506-PAZ021-071-NJZ106-
NYZ176-178-MAZ106-OHZ011-021-055-MIZ076-KYZ091-ILZ014-INZ047-
MNZ060-ONZ431-241300-

...Gateway Observations for Savannah International...

CITY           SKY/WX    TMP DP  RH WIND       PRES   REMARKS
Savannah Arpt  PTCLDY    43  39  86 N7        29.98S
6HR MIN TEMP:  43; 6HR MAX TEMP:  47;

Atlanta        PTCLDY    42  37  82 E6        30.03S
6HR MIN TEMP:  41; 6HR MAX TEMP:  47;

Charlotte      CLEAR     27  27 100 N3        30.07R
6HR MIN TEMP:  27; 6HR MAX TEMP:  34;

Dallas DFW     PTCLDY    47  33  58 S6        29.93F
6HR MIN TEMP:  45; 6HR MAX TEMP:  51;

Houston Bush   CLEAR     42  40  92 CALM      30.03S
6HR MIN TEMP:  41; 6HR MAX TEMP:  45;

Wash National  PTCLDY    33  29  85 SW5       30.09S WCI  29
6HR MIN TEMP:  32; 6HR MAX TEMP:  36;

Wash Dulles    CLOUDY    25  24  96 CALM      30.07S
6HR MIN TEMP:  24; 6HR MAX TEMP:  28;

Baltimore      CLEAR     26  24  92 CALM      30.07S
6HR MIN TEMP:  25; 6HR MAX TEMP:  29;

Philadelphia   CLEAR     32  27  81 W3        30.08S
6HR MIN TEMP:  30; 6HR MAX TEMP:  35;

Newark         PTCLDY    32  22  66 CALM      30.06R
6HR MIN TEMP:  27; 6HR MAX TEMP:  33;

Laguardia      PTCLDY    38  22  52 NW3       30.05R
6HR MIN TEMP:  38; 6HR MAX TEMP:  40;

J F K          PTCLDY    34  26  72 W6        30.07R WCI  29
6HR MIN TEMP:  33; 6HR MAX TEMP:  37;

Boston         CLEAR     33  24  69 SW10      30.01R WCI  25
6HR MIN TEMP:  31; 6HR MAX TEMP:  35;

Pittsburg      CLOUDY    28  22  78 CALM      30.00R
6HR MIN TEMP:  27; 6HR MAX TEMP:  30;

Akron          CLOUDY    28  21  75 S8        29.97S WCI  20
6HR MIN TEMP:  27; 6HR MAX TEMP:  31;

Cleveland      CLEAR     34  24  67 S14       29.96F WCI  25
6HR MIN TEMP:  33; 6HR MAX TEMP:  36;

Cincinnati     CLOUDY    30  24  78 S8        29.96S WCI  22
6HR MIN TEMP:  26; 6HR MAX TEMP:  32;

Columbus       CLOUDY    26  23  88 S5        29.98S WCI  21
Detroit        PTCLDY    30  25  81 S9        29.89R WCI  22
6HR MIN TEMP:  28; 6HR MAX TEMP:  33;

Chicago O`Hare PTCLDY    35  28  75 S6        29.76F WCI  30
6HR MIN TEMP:  32; 6HR MAX TEMP:  37;

Minneapolis    PTCLDY    48  39  71 S9        29.39F
6HR MIN TEMP:  46; 6HR MAX TEMP:  49;

Indianapolis   CLOUDY    31  23  72 S6        29.92F WCI  25
6HR MIN TEMP:  30; 6HR MAX TEMP:  34;

Toronto Canada PTCLDY    36  27  69 SW8       29.85F WCI  29

$$




USA.gov is the U.S. government's official web portal to all federal, state and local government web resources and services.